Location: Unspecified
(0.0000°N, 0.0000°E)
Time: 18:45:28
(UTC+00:00)

Vanguard 1 Rocket - Pass Details

Date: 25 November 2019
Orbit: 650 x 4226 km, 34.3° (Epoch: 05 December)

Event Time Altitude Azimuth Distance (km) Brightness Sun altitude
Rises 19:21:30 0° 227° (SW) 8,443 13.5 -22.0°
Reaches altitude 10° 19:28:09 10° 222° (SW) 7,236 12.8 -23.5°
Maximum altitude 19:50:16 52° 150° (SSE) 3,356 10.1 -28.6°
Enters shadow 19:56:07 37° 101° (E) 3,307 9.7 -29.9°
Drops below altitude 10° 20:02:25 10° 77° (ENE) 4,256 - -31.4°
Sets 20:05:08 0° 72° (ENE) 4,893 - -32.0°
